Change the Weather History Date:

Sunday, September 8, 2013

  Actual Average Record
Temperature  
Mean Temperature 69 °F 58 °F  
Max Temperature 81 °F 72 °F 88 °F (1978)
Min Temperature 57 °F 44 °F 30 °F (1948)
Degree Days  
Heating Degree Days 0 8  
Month to date heating degree days 5 54  
Since 1 July heating degree days 102 208  
Cooling Degree Days 4 1  
Month to date cooling degree days 38 8  
Year to date cooling degree days 187 174  
Growing Degree Days 18 (Base 50)    
Moisture  
Dew Point 59 °F    
Average Humidity 73    
Maximum Humidity 100    
Minimum Humidity 45    
Precipitation  
Precipitation 0.64 in 0.06 in 0.64 in (2013)
Month to date precipitation 0.83 0.52  
Year to date precipitation 16.78 15.44  
Sea Level Pressure  
Sea Level Pressure 29.97 in    
Wind  
Wind Speed 7 mph (NE)    
Max Wind Speed 32 mph    
Max Gust Speed 46 mph    
Visibility 6 miles    
Events Fog , Rain    
T = Trace of Precipitation, MM = Missing Value Source: NWS Daily Summary

Daily Weather History Graph

Daily Weather History Graph

Search for Another Location

Airport or City:

Trip Planner

Search our weather history database for the weather conditions in past years. The results will help you decide how hot, cold, wet, or windy it might be!

Date:

Astronomy

Sep. 08, 2013 Rise Set
Actual Time 6:26 AM MDT 7:16 PM MDT
Civil Twilight 5:57 AM MDT 7:46 PM MDT
Nautical Twilight 5:22 AM MDT 8:20 PM MDT
Astronomical Twilight 4:46 AM MDT 8:56 PM MDT
Moon 9:54 AM MDT (9/8) 8:45 PM MDT (9/8)
Length of Visible Light 13h 48m
Length of Day
12h 50m
Waxing Crescent, 11% of the Moon is Illuminated
Sep 8
Waxing Crescent
Sep 12
First Quarter
Sep 19
Full
Sep 26
Last Quarter
Oct 4
New

Hourly Weather History & Observations

Time (MDT) Temp. Dew Point Humidity Pressure Visibility Wind Dir Wind Speed Gust Speed Precip Events Conditions
12:53 AM 68.0 °F 59.0 °F 73% 29.91 in 10.0 mi East 6.9 mph - N/A   Clear
1:53 AM 64.0 °F 62.1 °F 93% 29.89 in 10.0 mi Calm Calm - 0.06 in   Scattered Clouds
2:53 AM 64.0 °F 61.0 °F 90% 29.88 in 10.0 mi ENE 5.8 mph - 0.00 in   Scattered Clouds
3:53 AM 63.0 °F 60.1 °F 90% 29.89 in 10.0 mi East 5.8 mph - N/A   Clear
4:34 AM 60.8 °F 60.8 °F 100% 30.11 in 9.0 mi ENE 9.2 mph - N/A   Scattered Clouds
4:45 AM 60.8 °F 60.8 °F 100% 30.11 in 6.0 mi NE 8.1 mph - N/A   Mostly Cloudy
4:53 AM 61.0 °F 60.1 °F 97% 29.88 in 5.0 mi NE 9.2 mph - N/A   Mostly Cloudy
5:34 AM 60.8 °F 60.8 °F 100% 30.12 in 3.0 mi NE 8.1 mph - N/A   Overcast
5:40 AM 60.8 °F 60.8 °F 100% 30.11 in 1.8 mi NE 9.2 mph - N/A   Overcast
5:48 AM 60.8 °F 60.8 °F 100% 30.11 in 1.2 mi NE 11.5 mph - N/A   Overcast
5:53 AM 61.0 °F 60.1 °F 97% 29.89 in 1.5 mi NE 6.9 mph - N/A   Overcast
6:13 AM 60.8 °F 60.8 °F 100% 30.10 in 0.5 mi NE 12.7 mph - N/A Fog Fog
6:17 AM 60.8 °F 60.8 °F 100% 30.10 in 0.2 mi NE 10.4 mph - N/A Fog Fog
6:53 AM 60.1 °F 60.1 °F 100% 29.90 in 0.2 mi NE 10.4 mph - N/A Fog Fog
7:16 AM 60.8 °F 60.8 °F 100% 30.10 in 0.5 mi NE 9.2 mph - N/A Fog Fog
7:25 AM 60.8 °F 60.8 °F 100% 30.10 in 1.5 mi NE 8.1 mph - N/A   Overcast
7:36 AM 60.8 °F 60.8 °F 100% 30.11 in 2.0 mi NNE 8.1 mph - N/A   Overcast
7:53 AM 60.1 °F 60.1 °F 100% 29.91 in 1.8 mi NE 9.2 mph - N/A   Overcast
8:15 AM 60.8 °F 60.8 °F 100% 30.11 in 2.0 mi NE 8.1 mph - N/A   Overcast
8:26 AM 60.8 °F 60.8 °F 100% 30.11 in 4.0 mi NE 4.6 mph - N/A   Overcast
8:39 AM 60.8 °F 60.8 °F 100% 30.12 in 6.0 mi NE 6.9 mph - N/A   Overcast
8:53 AM 61.0 °F 60.1 °F 97% 29.93 in 8.0 mi NE 5.8 mph - N/A   Overcast
9:35 AM 62.6 °F 60.8 °F 94% 30.12 in 5.0 mi NNE 4.6 mph - N/A   Overcast
9:53 AM 64.9 °F 60.1 °F 84% 29.91 in 10.0 mi NE 5.8 mph - N/A   Overcast
10:24 AM 68.0 °F 60.8 °F 78% 30.10 in 10.0 mi ENE 6.9 mph - N/A   Mostly Cloudy
10:50 AM 68.0 °F 60.8 °F 78% 30.10 in 10.0 mi Variable 3.5 mph - N/A   Scattered Clouds
10:53 AM 66.9 °F 59.0 °F 76% 29.89 in 10.0 mi East 4.6 mph - N/A   Scattered Clouds
11:50 AM 71.6 °F 60.8 °F 69% 30.08 in 10.0 mi Variable 3.5 mph - N/A   Mostly Cloudy
11:53 AM 73.0 °F 61.0 °F 66% 29.85 in 10.0 mi NE 4.6 mph - N/A   Mostly Cloudy
12:04 PM 73.4 °F 60.8 °F 65% 30.07 in 10.0 mi ENE 5.8 mph - N/A   Scattered Clouds
12:18 PM 73.4 °F 59.0 °F 61% 30.07 in 10.0 mi Variable 3.5 mph - N/A   Mostly Cloudy
12:36 PM 73.4 °F 60.8 °F 65% 30.06 in 10.0 mi Variable 4.6 mph - N/A   Mostly Cloudy
12:53 PM 73.9 °F 60.1 °F 62% 29.84 in 10.0 mi Variable 4.6 mph - N/A   Mostly Cloudy
1:53 PM 77.0 °F 59.0 °F 54% 29.83 in 10.0 mi Variable 4.6 mph 17.3 mph N/A   Scattered Clouds
2:53 PM 78.1 °F 57.0 °F 48% 29.81 in 10.0 mi Variable 6.9 mph - N/A   Partly Cloudy
3:53 PM 79.0 °F 57.0 °F 47% 29.78 in 10.0 mi Variable 3.5 mph - N/A   Partly Cloudy
4:53 PM 78.1 °F 55.0 °F 45% 29.77 in 10.0 mi SSW 9.2 mph - N/A   Mostly Cloudy
5:53 PM 70.0 °F 61.0 °F 73% 29.80 in 10.0 mi ENE 11.5 mph - N/A   Mostly Cloudy
6:53 PM 66.9 °F 60.1 °F 79% 29.81 in 10.0 mi ENE 8.1 mph - N/A   Clear
7:53 PM 64.9 °F 61.0 °F 87% 29.81 in 7.0 mi Variable 4.6 mph - 0.01 in Rain Rain
8:06 PM 57.2 °F 55.4 °F 94% 30.05 in 1.8 mi WSW 23.0 mph 39.1 mph 0.07 in Rain Heavy Rain
8:10 PM 57.2 °F 55.4 °F 94% 30.05 in 1.2 mi West 32.2 mph 46.0 mph 0.09 in Rain Heavy Rain
8:24 PM 57.2 °F 55.4 °F 94% 30.06 in 2.0 mi West 20.7 mph 42.6 mph 0.33 in Rain Heavy Rain
8:41 PM 57.2 °F 55.4 °F 94% 30.06 in 5.0 mi West 16.1 mph 24.2 mph 0.44 in Rain Rain
8:53 PM 57.9 °F 55.9 °F 93% 29.89 in 8.0 mi WNW 10.4 mph - 0.46 in Rain Light Rain
9:53 PM 59.0 °F 55.9 °F 90% 29.83 in 10.0 mi West 6.9 mph - 0.10 in Rain Light Rain
10:53 PM 60.1 °F 55.9 °F 86% 29.78 in 10.0 mi WNW 9.2 mph - 0.01 in   Mostly Cloudy
11:53 PM 57.9 °F 55.9 °F 93% 29.76 in 10.0 mi WSW 4.6 mph - N/A   Scattered Clouds